Time,TemperatureF,DewpointF,PressureIn,WindDirection,WindDirectionDegrees,WindSpeedMPH,WindSpeedGustMPH,Humidity,HourlyPrecipIn,Conditions,Clouds,dailyrainin,SoftwareType,DateUTC
2013-03-04 00:00:00,20.0,18.0,29.78,NNE,22,7.0,15.0,93,0.00,,,0.00,Rainwise IP-100,2013-03-04 05:00:00,
2013-03-04 00:05:00,20.0,18.0,29.78,NE,45,3.0,9.0,93,0.00,,,0.00,Rainwise IP-100,2013-03-04 05:05:00,
2013-03-04 00:10:00,20.0,18.0,29.78,NNW,337,4.0,8.0,93,0.00,,,0.00,Rainwise IP-100,2013-03-04 05:10:00,
2013-03-04 00:15:00,20.0,18.0,29.79,NNE,22,6.0,10.0,93,0.00,,,0.00,Rainwise IP-100,2013-03-04 05:15:00,
2013-03-04 00:20:00,20.0,18.0,29.79,NNE,22,3.0,10.0,93,0.00,,,0.00,Rainwise IP-100,2013-03-04 05:20:00,
2013-03-04 00:25:00,20.0,18.0,29.78,North,360,9.0,11.0,93,0.00,,,0.00,Rainwise IP-100,2013-03-04 05:25:00,
2013-03-04 00:30:00,20.0,18.0,29.78,NNE,22,5.0,9.0,93,0.00,,,0.00,Rainwise IP-100,2013-03-04 05:30:00,
2013-03-04 00:35:00,20.0,18.0,29.79,North,360,3.0,11.0,93,0.00,,,0.00,Rainwise IP-100,2013-03-04 05:35:00,
2013-03-04 00:40:00,20.0,18.0,29.79,North,360,5.0,8.0,93,0.00,,,0.00,Rainwise IP-100,2013-03-04 05:40:00,
2013-03-04 00:45:00,20.0,18.0,29.80,North,360,6.0,9.0,93,0.00,,,0.00,Rainwise IP-100,2013-03-04 05:45:00,
2013-03-04 00:50:00,20.0,18.0,29.80,NNW,337,6.0,10.0,93,0.00,,,0.00,Rainwise IP-100,2013-03-04 05:50:00,
2013-03-04 00:55:00,20.0,18.0,29.80,North,360,9.0,10.0,93,0.00,,,0.00,Rainwise IP-100,2013-03-04 05:55:00,
2013-03-04 01:00:00,20.0,18.0,29.80,NNE,22,7.0,11.0,93,0.00,,,0.00,Rainwise IP-100,2013-03-04 06:00:00,
2013-03-04 01:05:00,20.0,18.0,29.80,NNE,22,7.0,12.0,93,0.00,,,0.00,Rainwise IP-100,2013-03-04 06:05:00,
2013-03-04 01:10:00,20.0,18.0,29.80,North,360,6.0,9.0,93,0.00,,,0.00,Rainwise IP-100,2013-03-04 06:10:00,
2013-03-04 01:15:00,20.0,18.0,29.80,North,360,13.0,13.0,93,0.00,,,0.00,Rainwise IP-100,2013-03-04 06:15:00,
2013-03-04 01:20:00,20.0,18.0,29.80,ENE,67,6.0,14.0,93,0.00,,,0.00,Rainwise IP-100,2013-03-04 06:20:00,
2013-03-04 01:25:00,20.0,18.0,29.80,NNE,22,6.0,9.0,93,0.00,,,0.00,Rainwise IP-100,2013-03-04 06:25:00,
2013-03-04 01:30:00,20.0,18.0,29.80,NW,315,6.0,10.0,93,0.00,,,0.00,Rainwise IP-100,2013-03-04 06:30:00,
2013-03-04 01:35:00,20.0,18.0,29.80,North,360,6.0,12.0,93,0.00,,,0.00,Rainwise IP-100,2013-03-04 06:35:00,
2013-03-04 01:40:00,20.0,18.0,29.80,NE,45,6.0,9.0,93,0.00,,,0.00,Rainwise IP-100,2013-03-04 06:40:00,
2013-03-04 01:45:00,20.0,18.0,29.79,North,360,7.0,11.0,93,0.00,,,0.00,Rainwise IP-100,2013-03-04 06:45:00,
2013-03-04 01:50:00,20.0,18.0,29.79,NNW,337,10.0,12.0,93,0.00,,,0.00,Rainwise IP-100,2013-03-04 06:50:00,
2013-03-04 01:55:00,20.0,18.0,29.79,North,360,6.0,12.0,93,0.00,,,0.00,Rainwise IP-100,2013-03-04 06:55:00,
2013-03-04 02:00:00,20.0,18.0,29.79,North,360,5.0,13.0,93,0.00,,,0.00,Rainwise IP-100,2013-03-04 07:00:00,
2013-03-04 02:05:00,20.0,18.0,29.79,NNW,337,7.0,12.0,93,0.00,,,0.00,Rainwise IP-100,2013-03-04 07:05:00,
2013-03-04 02:10:00,20.0,18.0,29.79,NNW,337,7.0,10.0,93,0.00,,,0.00,Rainwise IP-100,2013-03-04 07:10:00,
2013-03-04 02:15:00,19.0,18.0,29.79,NNW,337,8.0,11.0,93,0.00,,,0.00,Rainwise IP-100,2013-03-04 07:15:00,
2013-03-04 02:20:00,19.0,18.0,29.79,NNW,337,3.0,13.0,93,0.00,,,0.00,Rainwise IP-100,2013-03-04 07:20:00,
2013-03-04 02:25:00,19.0,18.0,29.79,NW,315,7.0,10.0,93,0.00,,,0.00,Rainwise IP-100,2013-03-04 07:25:00,
2013-03-04 02:30:00,19.0,18.0,29.79,NW,315,6.0,11.0,93,0.00,,,0.00,Rainwise IP-100,2013-03-04 07:30:00,
2013-03-04 02:35:00,19.0,18.0,29.80,NNW,337,6.0,10.0,93,0.00,,,0.00,Rainwise IP-100,2013-03-04 07:35:00,
2013-03-04 02:40:00,19.0,18.0,29.80,NW,315,9.0,10.0,93,0.00,,,0.00,Rainwise IP-100,2013-03-04 07:40:00,
2013-03-04 02:45:00,19.0,18.0,29.80,NW,315,9.0,12.0,93,0.00,,,0.00,Rainwise IP-100,2013-03-04 07:45:00,
2013-03-04 02:50:00,19.0,18.0,29.80,North,360,6.0,12.0,93,0.00,,,0.00,Rainwise IP-100,2013-03-04 07:50:00,
2013-03-04 02:55:00,19.0,18.0,29.80,North,360,6.0,8.0,93,0.00,,,0.00,Rainwise IP-100,2013-03-04 07:55:00,
2013-03-04 03:00:00,19.0,18.0,29.80,North,360,6.0,9.0,93,0.00,,,0.00,Rainwise IP-100,2013-03-04 08:00:00,
2013-03-04 03:05:00,19.0,18.0,29.80,North,360,7.0,10.0,93,0.00,,,0.00,Rainwise IP-100,2013-03-04 08:05:00,
2013-03-04 03:10:00,19.0,18.0,29.80,North,360,6.0,9.0,93,0.00,,,0.00,Rainwise IP-100,2013-03-04 08:10:00,
2013-03-04 03:14:00,19.0,18.0,29.80,NNW,337,3.0,9.0,93,0.00,,,0.00,Rainwise IP-100,2013-03-04 08:14:00,
2013-03-04 03:19:00,19.0,18.0,29.80,North,360,3.0,6.0,93,0.00,,,0.00,Rainwise IP-100,2013-03-04 08:19:00,
2013-03-04 03:24:00,19.0,18.0,29.80,NNW,337,6.0,9.0,93,0.00,,,0.00,Rainwise IP-100,2013-03-04 08:24:00,
2013-03-04 03:29:00,19.0,18.0,29.80,NNW,337,0.0,7.0,93,0.00,,,0.00,Rainwise IP-100,2013-03-04 08:29:00,
2013-03-04 03:34:00,19.0,18.0,29.80,NE,45,5.0,6.0,93,0.00,,,0.00,Rainwise IP-100,2013-03-04 08:34:00,
2013-03-04 03:39:00,19.0,18.0,29.80,North,360,2.0,6.0,93,0.00,,,0.00,Rainwise IP-100,2013-03-04 08:39:00,
2013-03-04 03:44:00,19.0,18.0,29.80,NNW,337,6.0,13.0,93,0.00,,,0.00,Rainwise IP-100,2013-03-04 08:44:00,
2013-03-04 03:49:00,19.0,18.0,29.80,North,360,10.0,12.0,93,0.00,,,0.00,Rainwise IP-100,2013-03-04 08:49:00,
2013-03-04 03:54:00,19.0,18.0,29.80,NNE,22,6.0,11.0,93,0.00,,,0.00,Rainwise IP-100,2013-03-04 08:54:00,
2013-03-04 03:59:00,19.0,18.0,29.80,NNE,22,5.0,8.0,93,0.00,,,0.00,Rainwise IP-100,2013-03-04 08:59:00,
2013-03-04 04:04:00,19.0,18.0,29.80,North,360,9.0,9.0,93,0.00,,,0.00,Rainwise IP-100,2013-03-04 09:04:00,
2013-03-04 04:09:00,19.0,18.0,29.80,North,360,6.0,9.0,93,0.00,,,0.00,Rainwise IP-100,2013-03-04 09:09:00,
2013-03-04 04:14:00,19.0,18.0,29.80,North,360,5.0,8.0,93,0.00,,,0.00,Rainwise IP-100,2013-03-04 09:14:00,
2013-03-04 04:19:00,19.0,18.0,29.80,North,360,3.0,10.0,93,0.00,,,0.00,Rainwise IP-100,2013-03-04 09:19:00,
2013-03-04 04:24:00,19.0,18.0,29.80,NNE,22,3.0,7.0,93,0.00,,,0.00,Rainwise IP-100,2013-03-04 09:24:00,
2013-03-04 04:29:00,19.0,18.0,29.80,NNW,337,3.0,7.0,93,0.00,,,0.00,Rainwise IP-100,2013-03-04 09:29:00,
2013-03-04 04:34:00,19.0,18.0,29.80,North,360,6.0,9.0,93,0.00,,,0.00,Rainwise IP-100,2013-03-04 09:34:00,
2013-03-04 04:39:00,19.0,18.0,29.80,North,360,7.0,10.0,93,0.00,,,0.00,Rainwise IP-100,2013-03-04 09:39:00,
2013-03-04 04:44:00,19.0,18.0,29.80,NNW,337,3.0,12.0,93,0.00,,,0.00,Rainwise IP-100,2013-03-04 09:44:00,
2013-03-04 04:49:00,19.0,18.0,29.80,NNE,22,7.0,10.0,93,0.00,,,0.00,Rainwise IP-100,2013-03-04 09:49:00,
2013-03-04 04:54:00,19.0,18.0,29.80,North,360,7.0,8.0,93,0.00,,,0.00,Rainwise IP-100,2013-03-04 09:54:00,
2013-03-04 04:59:00,19.0,18.0,29.80,North,360,5.0,10.0,93,0.00,,,0.00,Rainwise IP-100,2013-03-04 09:59:00,
2013-03-04 05:04:00,19.0,18.0,29.81,NNW,337,5.0,11.0,93,0.00,,,0.00,Rainwise IP-100,2013-03-04 10:04:00,
2013-03-04 05:06:00,19.0,18.0,29.81,NE,45,6.0,11.0,93,0.00,,,0.00,Rainwise IP-100,2013-03-04 10:06:00,
2013-03-04 05:11:00,19.0,18.0,29.81,NNW,337,4.0,10.0,93,0.00,,,0.00,Rainwise IP-100,2013-03-04 10:11:00,
2013-03-04 05:16:00,19.0,18.0,29.81,North,360,7.0,13.0,93,0.00,,,0.00,Rainwise IP-100,2013-03-04 10:16:00,
2013-03-04 05:21:00,19.0,18.0,29.81,NNW,337,6.0,11.0,93,0.00,,,0.00,Rainwise IP-100,2013-03-04 10:21:00,
2013-03-04 05:26:00,19.0,18.0,29.81,NNE,22,6.0,10.0,93,0.00,,,0.00,Rainwise IP-100,2013-03-04 10:26:00,
2013-03-04 05:31:00,19.0,18.0,29.80,NW,315,8.0,8.0,93,0.00,,,0.00,Rainwise IP-100,2013-03-04 10:31:00,
2013-03-04 05:36:00,19.0,18.0,29.80,NNW,337,8.0,9.0,93,0.00,,,0.00,Rainwise IP-100,2013-03-04 10:36:00,
2013-03-04 05:41:00,19.0,18.0,29.80,North,360,9.0,10.0,93,0.00,,,0.00,Rainwise IP-100,2013-03-04 10:41:00,
2013-03-04 05:46:00,19.0,18.0,29.80,North,360,6.0,11.0,93,0.00,,,0.00,Rainwise IP-100,2013-03-04 10:46:00,
2013-03-04 05:51:00,19.0,18.0,29.80,North,360,6.0,9.0,93,0.00,,,0.00,Rainwise IP-100,2013-03-04 10:51:00,
2013-03-04 05:56:00,19.0,18.0,29.80,North,360,4.0,7.0,93,0.00,,,0.00,Rainwise IP-100,2013-03-04 10:56:00,
2013-03-04 06:01:00,19.0,18.0,29.80,North,360,5.0,7.0,93,0.00,,,0.00,Rainwise IP-100,2013-03-04 11:01:00,
2013-03-04 06:06:00,19.0,18.0,29.80,NNW,337,7.0,11.0,93,0.00,,,0.00,Rainwise IP-100,2013-03-04 11:06:00,
2013-03-04 06:11:00,19.0,18.0,29.80,NNE,22,6.0,10.0,93,0.00,,,0.00,Rainwise IP-100,2013-03-04 11:11:00,
2013-03-04 06:16:00,19.0,18.0,29.80,NNE,22,6.0,8.0,93,0.00,,,0.00,Rainwise IP-100,2013-03-04 11:16:00,
2013-03-04 06:21:00,19.0,18.0,29.81,NE,45,6.0,9.0,93,0.00,,,0.00,Rainwise IP-100,2013-03-04 11:21:00,
2013-03-04 06:26:00,19.0,18.0,29.81,North,360,6.0,8.0,93,0.00,,,0.00,Rainwise IP-100,2013-03-04 11:26:00,
2013-03-04 06:31:00,19.0,18.0,29.81,NNW,337,9.0,9.0,93,0.00,,,0.00,Rainwise IP-100,2013-03-04 11:31:00,
2013-03-04 06:36:00,19.0,18.0,29.81,NNW,337,8.0,13.0,93,0.00,,,0.00,Rainwise IP-100,2013-03-04 11:36:00,
2013-03-04 06:41:00,20.0,18.0,29.81,NNW,337,8.0,10.0,93,0.00,,,0.00,Rainwise IP-100,2013-03-04 11:41:00,
2013-03-04 06:46:00,20.0,18.0,29.81,North,360,5.0,11.0,93,0.00,,,0.00,Rainwise IP-100,2013-03-04 11:46:00,
2013-03-04 06:51:00,20.0,18.0,29.81,NNW,337,6.0,10.0,93,0.00,,,0.00,Rainwise IP-100,2013-03-04 11:51:00,
2013-03-04 06:56:00,20.0,18.0,29.81,NNE,22,6.0,9.0,93,0.00,,,0.00,Rainwise IP-100,2013-03-04 11:56:00,
2013-03-04 07:01:00,20.0,18.0,29.81,NNW,337,8.0,12.0,93,0.00,,,0.00,Rainwise IP-100,2013-03-04 12:01:00,
2013-03-04 07:06:00,20.0,18.0,29.81,North,360,9.0,12.0,93,0.00,,,0.00,Rainwise IP-100,2013-03-04 12:06:00,
2013-03-04 07:11:00,20.0,18.0,29.81,North,360,9.0,10.0,93,0.00,,,0.00,Rainwise IP-100,2013-03-04 12:11:00,
2013-03-04 07:16:00,19.0,18.0,29.81,North,360,9.0,11.0,93,0.00,,,0.00,Rainwise IP-100,2013-03-04 12:16:00,
2013-03-04 07:21:00,19.0,18.0,29.81,NW,315,7.0,10.0,93,0.00,,,0.00,Rainwise IP-100,2013-03-04 12:21:00,
2013-03-04 07:26:00,19.0,18.0,29.81,North,360,7.0,10.0,93,0.00,,,0.00,Rainwise IP-100,2013-03-04 12:26:00,
2013-03-04 07:31:00,19.0,18.0,29.81,NNW,337,6.0,17.0,93,0.00,,,0.00,Rainwise IP-100,2013-03-04 12:31:00,
2013-03-04 07:36:00,19.0,18.0,29.81,North,360,7.0,13.0,93,0.00,,,0.00,Rainwise IP-100,2013-03-04 12:36:00,
2013-03-04 07:41:00,20.0,18.0,29.80,NE,45,2.0,9.0,93,0.00,,,0.00,Rainwise IP-100,2013-03-04 12:41:00,
2013-03-04 07:46:00,20.0,18.0,29.80,NNE,22,4.0,10.0,93,0.00,,,0.00,Rainwise IP-100,2013-03-04 12:46:00,
2013-03-04 07:51:00,20.0,18.0,29.81,NNE,22,5.0,12.0,93,0.00,,,0.00,Rainwise IP-100,2013-03-04 12:51:00,
2013-03-04 07:56:00,20.0,18.0,29.81,NE,45,4.0,11.0,93,0.00,,,0.00,Rainwise IP-100,2013-03-04 12:56:00,
2013-03-04 08:01:00,20.0,18.0,29.81,NNE,22,7.0,10.0,93,0.00,,,0.00,Rainwise IP-100,2013-03-04 13:01:00,
2013-03-04 08:06:00,20.0,18.0,29.81,NNE,22,10.0,15.0,93,0.00,,,0.00,Rainwise IP-100,2013-03-04 13:06:00,
2013-03-04 08:11:00,20.0,18.0,29.81,NNW,337,8.0,15.0,93,0.00,,,0.00,Rainwise IP-100,2013-03-04 13:11:00,
2013-03-04 08:16:00,20.0,18.0,29.81,NNW,337,14.0,14.0,93,0.00,,,0.00,Rainwise IP-100,2013-03-04 13:16:00,
2013-03-04 08:21:00,20.0,18.0,29.81,North,360,8.0,20.0,93,0.00,,,0.00,Rainwise IP-100,2013-03-04 13:21:00,
2013-03-04 08:26:00,21.0,18.0,29.81,North,360,6.0,16.0,93,0.00,,,0.00,Rainwise IP-100,2013-03-04 13:26:00,
2013-03-04 08:31:00,20.0,18.0,29.81,NNW,337,9.0,18.0,93,0.00,,,0.00,Rainwise IP-100,2013-03-04 13:31:00,
2013-03-04 08:36:00,20.0,18.0,29.81,North,360,10.0,17.0,93,0.00,,,0.00,Rainwise IP-100,2013-03-04 13:36:00,
2013-03-04 08:41:00,20.0,18.0,29.81,North,360,8.0,14.0,93,0.00,,,0.00,Rainwise IP-100,2013-03-04 13:41:00,
2013-03-04 08:46:00,20.0,18.0,29.81,NNW,337,7.0,20.0,93,0.00,,,0.00,Rainwise IP-100,2013-03-04 13:46:00,
2013-03-04 08:51:00,20.0,18.0,29.81,North,360,9.0,20.0,93,0.00,,,0.00,Rainwise IP-100,2013-03-04 13:51:00,
2013-03-04 08:56:00,20.0,18.0,29.81,North,360,6.0,15.0,93,0.00,,,0.00,Rainwise IP-100,2013-03-04 13:56:00,
2013-03-04 09:01:00,20.0,18.0,29.81,North,360,3.0,19.0,93,0.00,,,0.00,Rainwise IP-100,2013-03-04 14:01:00,
2013-03-04 09:06:00,20.0,18.0,29.81,North,360,9.0,16.0,93,0.00,,,0.00,Rainwise IP-100,2013-03-04 14:06:00,
2013-03-04 09:11:00,21.0,18.0,29.80,North,360,9.0,15.0,93,0.00,,,0.00,Rainwise IP-100,2013-03-04 14:11:00,
2013-03-04 09:16:00,20.0,18.0,29.80,NNE,22,9.0,16.0,93,0.00,,,0.00,Rainwise IP-100,2013-03-04 14:16:00,
2013-03-04 09:21:00,20.0,18.0,29.81,NE,45,2.0,15.0,93,0.00,,,0.00,Rainwise IP-100,2013-03-04 14:21:00,
2013-03-04 09:26:00,20.0,18.0,29.81,North,360,10.0,13.0,93,0.00,,,0.00,Rainwise IP-100,2013-03-04 14:26:00,
2013-03-04 09:31:00,20.0,18.0,29.81,NNW,337,10.0,18.0,93,0.00,,,0.00,Rainwise IP-100,2013-03-04 14:31:00,
2013-03-04 09:36:00,20.0,18.0,29.81,NNW,337,12.0,16.0,93,0.00,,,0.00,Rainwise IP-100,2013-03-04 14:36:00,
2013-03-04 09:41:00,20.0,18.0,29.81,NNW,337,13.0,19.0,92,0.00,,,0.00,Rainwise IP-100,2013-03-04 14:41:00,
2013-03-04 09:46:00,21.0,18.0,29.81,NE,45,7.0,16.0,93,0.00,,,0.00,Rainwise IP-100,2013-03-04 14:46:00,
2013-03-04 09:51:00,20.0,18.0,29.81,NNW,337,10.0,19.0,93,0.00,,,0.00,Rainwise IP-100,2013-03-04 14:51:00,
2013-03-04 09:56:00,20.0,18.0,29.81,NW,315,8.0,15.0,93,0.00,,,0.00,Rainwise IP-100,2013-03-04 14:56:00,
2013-03-04 10:01:00,20.0,18.0,29.81,West,270,6.0,10.0,93,0.00,,,0.00,Rainwise IP-100,2013-03-04 15:01:00,
2013-03-04 10:06:00,20.0,18.0,29.80,WNW,292,9.0,20.0,93,0.00,,,0.00,Rainwise IP-100,2013-03-04 15:06:00,
2013-03-04 10:11:00,21.0,18.0,29.80,NW,315,7.0,16.0,92,0.00,,,0.00,Rainwise IP-100,2013-03-04 15:11:00,
2013-03-04 10:16:00,21.0,18.0,29.80,NNW,337,16.0,16.0,90,0.00,,,0.00,Rainwise IP-100,2013-03-04 15:16:00,
2013-03-04 10:21:00,21.0,18.0,29.80,NW,315,12.0,25.0,90,0.00,,,0.00,Rainwise IP-100,2013-03-04 15:21:00,
2013-03-04 10:26:00,21.0,18.0,29.80,NNW,337,9.0,21.0,89,0.00,,,0.00,Rainwise IP-100,2013-03-04 15:26:00,
2013-03-04 10:31:00,21.0,18.0,29.80,NW,315,25.0,25.0,88,0.00,,,0.00,Rainwise IP-100,2013-03-04 15:31:00,
2013-03-04 10:36:00,22.0,21.0,29.80,NNW,337,8.0,25.0,88,0.00,,,0.00,Rainwise IP-100,2013-03-04 15:36:00,
2013-03-04 10:41:00,22.0,18.0,29.80,NNE,22,9.0,21.0,86,0.00,,,0.00,Rainwise IP-100,2013-03-04 15:41:00,
2013-03-04 10:46:00,22.0,18.0,29.80,North,360,17.0,17.0,84,0.00,,,0.00,Rainwise IP-100,2013-03-04 15:46:00,
2013-03-04 10:51:00,23.0,18.0,29.79,NE,45,4.0,24.0,83,0.00,,,0.00,Rainwise IP-100,2013-03-04 15:51:00,
2013-03-04 10:56:00,23.0,18.0,29.79,NNW,337,11.0,17.0,83,0.00,,,0.00,Rainwise IP-100,2013-03-04 15:56:00,
2013-03-04 11:01:00,22.0,18.0,29.79,North,360,9.0,19.0,83,0.00,,,0.00,Rainwise IP-100,2013-03-04 16:01:00,
2013-03-04 11:06:00,22.0,18.0,29.80,ENE,67,6.0,19.0,84,0.00,,,0.00,Rainwise IP-100,2013-03-04 16:06:00,
2013-03-04 11:11:00,22.0,18.0,29.80,NNW,337,16.0,20.0,83,0.00,,,0.00,Rainwise IP-100,2013-03-04 16:11:00,
2013-03-04 11:16:00,23.0,18.0,29.80,North,360,6.0,16.0,84,0.00,,,0.00,Rainwise IP-100,2013-03-04 16:16:00,
2013-03-04 11:21:00,23.0,18.0,29.80,North,360,11.0,13.0,82,0.00,,,0.00,Rainwise IP-100,2013-03-04 16:21:00,
2013-03-04 11:26:00,23.0,18.0,29.78,NE,45,9.0,15.0,82,0.00,,,0.00,Rainwise IP-100,2013-03-04 16:26:00,
2013-03-04 11:31:00,23.0,18.0,29.78,North,360,16.0,17.0,80,0.00,,,0.00,Rainwise IP-100,2013-03-04 16:31:00,
2013-03-04 11:36:00,23.0,18.0,29.78,North,360,9.0,21.0,81,0.00,,,0.00,Rainwise IP-100,2013-03-04 16:36:00,
2013-03-04 11:41:00,23.0,18.0,29.78,NE,45,12.0,18.0,80,0.00,,,0.00,Rainwise IP-100,2013-03-04 16:41:00,
2013-03-04 11:46:00,23.0,18.0,29.79,ENE,67,7.0,22.0,80,0.00,,,0.00,Rainwise IP-100,2013-03-04 16:46:00,
2013-03-04 11:51:00,23.0,18.0,29.79,NNE,22,9.0,18.0,81,0.00,,,0.00,Rainwise IP-100,2013-03-04 16:51:00,
2013-03-04 11:56:00,23.0,18.0,29.78,ENE,67,4.0,15.0,80,0.00,,,0.00,Rainwise IP-100,2013-03-04 16:56:00,
2013-03-04 12:01:00,23.0,18.0,29.78,NW,315,6.0,28.0,83,0.00,,,0.00,Rainwise IP-100,2013-03-04 17:01:00,
2013-03-04 12:06:00,23.0,18.0,29.79,NNE,22,8.0,14.0,80,0.00,,,0.00,Rainwise IP-100,2013-03-04 17:06:00,
2013-03-04 12:11:00,24.0,21.0,29.79,ENE,67,6.0,10.0,82,0.00,,,0.00,Rainwise IP-100,2013-03-04 17:11:00,
2013-03-04 12:16:00,24.0,18.0,29.78,North,360,10.0,22.0,80,0.00,,,0.00,Rainwise IP-100,2013-03-04 17:16:00,
2013-03-04 12:21:00,24.0,18.0,29.78,North,360,9.0,22.0,80,0.00,,,0.00,Rainwise IP-100,2013-03-04 17:21:00,
2013-03-04 12:26:00,25.0,21.0,29.78,North,360,7.0,12.0,79,0.00,,,0.00,Rainwise IP-100,2013-03-04 17:26:00,
2013-03-04 12:31:00,25.0,21.0,29.78,NNE,22,9.0,20.0,79,0.00,,,0.00,Rainwise IP-100,2013-03-04 17:31:00,
2013-03-04 12:36:00,24.0,18.0,29.77,NE,45,7.0,19.0,80,0.00,,,0.00,Rainwise IP-100,2013-03-04 17:36:00,
2013-03-04 12:41:00,24.0,18.0,29.77,North,360,10.0,15.0,79,0.00,,,0.00,Rainwise IP-100,2013-03-04 17:41:00,
2013-03-04 12:46:00,24.0,18.0,29.78,ENE,67,7.0,18.0,80,0.00,,,0.00,Rainwise IP-100,2013-03-04 17:46:00,
2013-03-04 12:51:00,24.0,21.0,29.78,NE,45,6.0,15.0,81,0.00,,,0.00,Rainwise IP-100,2013-03-04 17:51:00,
2013-03-04 12:56:00,24.0,21.0,29.78,North,360,11.0,12.0,81,0.00,,,0.00,Rainwise IP-100,2013-03-04 17:56:00,
2013-03-04 13:01:00,24.0,21.0,29.78,North,360,10.0,17.0,82,0.00,,,0.00,Rainwise IP-100,2013-03-04 18:01:00,
2013-03-04 13:06:00,24.0,21.0,29.78,ENE,67,8.0,21.0,84,0.00,,,0.00,Rainwise IP-100,2013-03-04 18:06:00,
2013-03-04 13:11:00,24.0,21.0,29.78,ENE,67,9.0,14.0,85,0.00,,,0.00,Rainwise IP-100,2013-03-04 18:11:00,
2013-03-04 13:16:00,24.0,21.0,29.78,North,360,7.0,19.0,84,0.00,,,0.00,Rainwise IP-100,2013-03-04 18:16:00,
2013-03-04 13:21:00,23.0,18.0,29.78,NNE,22,7.0,19.0,84,0.00,,,0.00,Rainwise IP-100,2013-03-04 18:21:00,
2013-03-04 13:26:00,23.0,18.0,29.79,NNW,337,10.0,17.0,84,0.00,,,0.00,Rainwise IP-100,2013-03-04 18:26:00,
2013-03-04 13:29:00,24.0,21.0,29.79,North,360,7.0,17.0,86,0.00,,,0.00,Rainwise IP-100,2013-03-04 18:29:00,
2013-03-04 13:32:00,24.0,21.0,29.79,ENE,67,9.0,9.0,86,0.00,,,0.00,Rainwise IP-100,2013-03-04 18:32:00,
2013-03-04 13:33:00,24.0,21.0,29.79,ENE,67,7.0,9.0,86,0.00,,,0.00,Rainwise IP-100,2013-03-04 18:33:00,
2013-03-04 13:38:00,24.0,21.0,29.79,North,360,8.0,12.0,87,0.00,,,0.00,Rainwise IP-100,2013-03-04 18:38:00,
2013-03-04 13:43:00,24.0,21.0,29.78,NNW,337,1.0,18.0,85,0.00,,,0.00,Rainwise IP-100,2013-03-04 18:43:00,
2013-03-04 13:48:00,24.0,21.0,29.78,NE,45,7.0,17.0,86,0.00,,,0.00,Rainwise IP-100,2013-03-04 18:48:00,
2013-03-04 13:53:00,24.0,21.0,29.79,ENE,67,8.0,15.0,84,0.00,,,0.00,Rainwise IP-100,2013-03-04 18:53:00,
2013-03-04 13:58:00,24.0,21.0,29.79,North,360,6.0,13.0,84,0.00,,,0.00,Rainwise IP-100,2013-03-04 18:58:00,
2013-03-04 14:03:00,24.0,21.0,29.80,NE,45,7.0,9.0,82,0.00,,,0.00,Rainwise IP-100,2013-03-04 19:03:00,
2013-03-04 14:08:00,25.0,21.0,29.80,North,360,7.0,12.0,81,0.00,,,0.00,Rainwise IP-100,2013-03-04 19:08:00,
2013-03-04 14:13:00,25.0,21.0,29.80,North,360,9.0,15.0,80,0.00,,,0.00,Rainwise IP-100,2013-03-04 19:13:00,
2013-03-04 14:18:00,24.0,21.0,29.80,NW,315,8.0,17.0,81,0.00,,,0.00,Rainwise IP-100,2013-03-04 19:18:00,
2013-03-04 14:23:00,24.0,21.0,29.80,North,360,10.0,16.0,82,0.00,,,0.00,Rainwise IP-100,2013-03-04 19:23:00,
2013-03-04 14:28:00,24.0,21.0,29.80,NW,315,6.0,13.0,84,0.00,,,0.00,Rainwise IP-100,2013-03-04 19:28:00,
2013-03-04 14:33:00,24.0,21.0,29.80,North,360,11.0,19.0,83,0.00,,,0.00,Rainwise IP-100,2013-03-04 19:33:00,
2013-03-04 14:38:00,24.0,21.0,29.80,North,360,9.0,12.0,83,0.00,,,0.00,Rainwise IP-100,2013-03-04 19:38:00,
2013-03-04 14:43:00,24.0,21.0,29.80,East,90,6.0,9.0,83,0.00,,,0.00,Rainwise IP-100,2013-03-04 19:43:00,
2013-03-04 14:48:00,24.0,21.0,29.80,North,360,3.0,13.0,84,0.00,,,0.00,Rainwise IP-100,2013-03-04 19:48:00,
2013-03-04 14:53:00,24.0,21.0,29.81,NNE,22,6.0,13.0,83,0.00,,,0.00,Rainwise IP-100,2013-03-04 19:53:00,
2013-03-04 14:58:00,24.0,21.0,29.81,ENE,67,7.0,10.0,83,0.00,,,0.00,Rainwise IP-100,2013-03-04 19:58:00,
2013-03-04 15:03:00,24.0,21.0,29.81,NE,45,6.0,10.0,83,0.00,,,0.00,Rainwise IP-100,2013-03-04 20:03:00,
2013-03-04 15:08:00,24.0,21.0,29.81,North,360,12.0,12.0,82,0.00,,,0.00,Rainwise IP-100,2013-03-04 20:08:00,
2013-03-04 15:13:00,24.0,21.0,29.81,North,360,8.0,12.0,81,0.00,,,0.00,Rainwise IP-100,2013-03-04 20:13:00,
2013-03-04 15:18:00,24.0,21.0,29.81,NE,45,10.0,10.0,82,0.00,,,0.00,Rainwise IP-100,2013-03-04 20:18:00,
2013-03-04 15:24:00,24.0,21.0,29.82,NNE,22,12.0,15.0,81,0.00,,,0.00,Rainwise IP-100,2013-03-04 20:24:00,
2013-03-04 15:28:00,23.0,18.0,29.82,NNW,337,10.0,15.0,82,0.00,,,0.00,Rainwise IP-100,2013-03-04 20:28:00,
2013-03-04 15:33:00,23.0,18.0,29.82,North,360,9.0,16.0,84,0.00,,,0.00,Rainwise IP-100,2013-03-04 20:33:00,
2013-03-04 15:38:00,23.0,18.0,29.82,NNW,337,7.0,16.0,84,0.00,,,0.00,Rainwise IP-100,2013-03-04 20:38:00,
2013-03-04 15:43:00,23.0,18.0,29.82,NNW,337,5.0,11.0,84,0.00,,,0.00,Rainwise IP-100,2013-03-04 20:43:00,
2013-03-04 15:48:00,23.0,18.0,29.82,NW,315,6.0,11.0,82,0.00,,,0.00,Rainwise IP-100,2013-03-04 20:48:00,
2013-03-04 15:53:00,23.0,18.0,29.83,NW,315,9.0,14.0,83,0.00,,,0.00,Rainwise IP-100,2013-03-04 20:53:00,
2013-03-04 15:58:00,23.0,18.0,29.83,NNW,337,9.0,17.0,82,0.00,,,0.00,Rainwise IP-100,2013-03-04 20:58:00,
2013-03-04 16:03:00,23.0,18.0,29.83,NW,315,13.0,14.0,82,0.00,,,0.00,Rainwise IP-100,2013-03-04 21:03:00,
2013-03-04 16:08:00,23.0,18.0,29.83,NNW,337,12.0,15.0,81,0.00,,,0.00,Rainwise IP-100,2013-03-04 21:08:00,
2013-03-04 16:13:00,22.0,18.0,29.83,North,360,12.0,15.0,82,0.00,,,0.00,Rainwise IP-100,2013-03-04 21:13:00,
2013-03-04 16:18:00,22.0,18.0,29.83,NNW,337,7.0,20.0,83,0.00,,,0.00,Rainwise IP-100,2013-03-04 21:18:00,
2013-03-04 16:23:00,22.0,18.0,29.84,NW,315,8.0,17.0,83,0.00,,,0.00,Rainwise IP-100,2013-03-04 21:23:00,
2013-03-04 16:28:00,22.0,18.0,29.84,NW,315,6.0,14.0,84,0.00,,,0.00,Rainwise IP-100,2013-03-04 21:28:00,
2013-03-04 16:33:00,22.0,18.0,29.85,WNW,292,5.0,10.0,85,0.00,,,0.00,Rainwise IP-100,2013-03-04 21:33:00,
2013-03-04 16:38:00,22.0,18.0,29.85,NW,315,9.0,9.0,86,0.00,,,0.00,Rainwise IP-100,2013-03-04 21:38:00,
2013-03-04 16:43:00,22.0,18.0,29.85,NNW,337,7.0,13.0,86,0.00,,,0.00,Rainwise IP-100,2013-03-04 21:43:00,
2013-03-04 16:48:00,22.0,21.0,29.85,NW,315,6.0,17.0,88,0.00,,,0.00,Rainwise IP-100,2013-03-04 21:48:00,
2013-03-04 16:53:00,22.0,21.0,29.86,NNW,337,6.0,12.0,88,0.00,,,0.00,Rainwise IP-100,2013-03-04 21:53:00,
2013-03-04 16:58:00,22.0,21.0,29.86,NNW,337,9.0,9.0,88,0.00,,,0.00,Rainwise IP-100,2013-03-04 21:58:00,
2013-03-04 17:03:00,22.0,21.0,29.86,NNW,337,6.0,10.0,88,0.00,,,0.00,Rainwise IP-100,2013-03-04 22:03:00,
2013-03-04 17:08:00,21.0,18.0,29.86,WNW,292,6.0,12.0,89,0.00,,,0.00,Rainwise IP-100,2013-03-04 22:08:00,
2013-03-04 17:13:00,21.0,18.0,29.87,NNW,337,6.0,8.0,89,0.00,,,0.00,Rainwise IP-100,2013-03-04 22:13:00,
2013-03-04 17:18:00,21.0,18.0,29.87,NNW,337,4.0,10.0,90,0.00,,,0.00,Rainwise IP-100,2013-03-04 22:18:00,
2013-03-04 17:23:00,21.0,18.0,29.88,North,360,6.0,7.0,90,0.00,,,0.00,Rainwise IP-100,2013-03-04 22:23:00,
2013-03-04 17:28:00,21.0,18.0,29.88,NNW,337,11.0,11.0,90,0.00,,,0.00,Rainwise IP-100,2013-03-04 22:28:00,
2013-03-04 17:33:00,21.0,18.0,29.88,North,360,12.0,14.0,90,0.00,,,0.00,Rainwise IP-100,2013-03-04 22:33:00,
2013-03-04 17:38:00,21.0,18.0,29.88,NNW,337,7.0,13.0,90,0.00,,,0.00,Rainwise IP-100,2013-03-04 22:38:00,
2013-03-04 17:43:00,21.0,18.0,29.89,NNW,337,5.0,13.0,91,0.00,,,0.00,Rainwise IP-100,2013-03-04 22:43:00,
2013-03-04 17:48:00,21.0,18.0,29.89,North,360,6.0,9.0,92,0.00,,,0.00,Rainwise IP-100,2013-03-04 22:48:00,
2013-03-04 17:53:00,21.0,18.0,29.90,NNW,337,9.0,9.0,92,0.00,,,0.00,Rainwise IP-100,2013-03-04 22:53:00,
2013-03-04 17:58:00,21.0,18.0,29.90,NE,45,9.0,15.0,92,0.00,,,0.00,Rainwise IP-100,2013-03-04 22:58:00,
2013-03-04 18:03:00,21.0,18.0,29.90,North,360,8.0,15.0,92,0.00,,,0.00,Rainwise IP-100,2013-03-04 23:03:00,
2013-03-04 18:08:00,20.0,18.0,29.90,NNW,337,6.0,11.0,93,0.00,,,0.00,Rainwise IP-100,2013-03-04 23:08:00,
2013-03-04 18:13:00,20.0,18.0,29.91,NW,315,4.0,10.0,93,0.00,,,0.00,Rainwise IP-100,2013-03-04 23:13:00,
2013-03-04 18:18:00,20.0,18.0,29.91,West,270,2.0,6.0,93,0.00,,,0.00,Rainwise IP-100,2013-03-04 23:18:00,
2013-03-04 18:23:00,20.0,18.0,29.91,West,270,2.0,4.0,93,0.00,,,0.00,Rainwise IP-100,2013-03-04 23:23:00,
2013-03-04 18:28:00,20.0,18.0,29.91,NW,315,4.0,5.0,93,0.00,,,0.00,Rainwise IP-100,2013-03-04 23:28:00,
2013-03-04 18:33:00,20.0,18.0,29.92,NW,315,5.0,6.0,93,0.00,,,0.00,Rainwise IP-100,2013-03-04 23:33:00,
2013-03-04 18:38:00,20.0,18.0,29.92,WNW,292,6.0,6.0,93,0.00,,,0.00,Rainwise IP-100,2013-03-04 23:38:00,
2013-03-04 18:43:00,20.0,18.0,29.92,South,180,1.0,7.0,93,0.00,,,0.00,Rainwise IP-100,2013-03-04 23:43:00,
2013-03-04 18:48:00,20.0,18.0,29.92,SSE,157,2.0,6.0,92,0.00,,,0.00,Rainwise IP-100,2013-03-04 23:48:00,
2013-03-04 18:53:00,21.0,18.0,29.92,NNW,337,9.0,9.0,92,0.00,,,0.00,Rainwise IP-100,2013-03-04 23:53:00,
2013-03-04 18:58:00,21.0,18.0,29.92,NW,315,0.0,9.0,92,0.00,,,0.00,Rainwise IP-100,2013-03-04 23:58:00,
2013-03-04 19:03:00,21.0,18.0,29.92,WSW,247,0.0,5.0,92,0.00,,,0.00,Rainwise IP-100,2013-03-05 00:03:00,
2013-03-04 19:08:00,20.0,18.0,29.92,NW,315,6.0,7.0,92,0.00,,,0.00,Rainwise IP-100,2013-03-05 00:08:00,
2013-03-04 19:13:00,20.0,18.0,29.92,NNW,337,10.0,13.0,92,0.00,,,0.00,Rainwise IP-100,2013-03-05 00:13:00,
2013-03-04 19:18:00,20.0,18.0,29.92,NW,315,9.0,15.0,93,0.00,,,0.00,Rainwise IP-100,2013-03-05 00:18:00,
2013-03-04 19:23:00,20.0,18.0,29.93,NW,315,10.0,15.0,93,0.00,,,0.00,Rainwise IP-100,2013-03-05 00:23:00,
2013-03-04 19:28:00,20.0,18.0,29.93,NNW,337,7.0,15.0,93,0.00,,,0.00,Rainwise IP-100,2013-03-05 00:28:00,
2013-03-04 19:33:00,20.0,18.0,29.93,North,360,6.0,13.0,93,0.00,,,0.00,Rainwise IP-100,2013-03-05 00:33:00,
2013-03-04 19:38:00,20.0,18.0,29.93,NNW,337,13.0,15.0,93,0.00,,,0.00,Rainwise IP-100,2013-03-05 00:38:00,
2013-03-04 19:43:00,20.0,18.0,29.93,NNW,337,12.0,15.0,93,0.00,,,0.00,Rainwise IP-100,2013-03-05 00:43:00,
2013-03-04 19:48:00,20.0,18.0,29.93,WNW,292,11.0,13.0,93,0.00,,,0.00,Rainwise IP-100,2013-03-05 00:48:00,
2013-03-04 19:53:00,20.0,18.0,29.93,NW,315,6.0,12.0,93,0.00,,,0.00,Rainwise IP-100,2013-03-05 00:53:00,
2013-03-04 19:58:00,20.0,18.0,29.93,NNW,337,7.0,12.0,93,0.00,,,0.00,Rainwise IP-100,2013-03-05 00:58:00,
2013-03-04 20:03:00,21.0,18.0,29.93,North,360,7.0,10.0,92,0.00,,,0.00,Rainwise IP-100,2013-03-05 01:03:00,
2013-03-04 20:08:00,21.0,18.0,29.93,North,360,15.0,16.0,92,0.00,,,0.00,Rainwise IP-100,2013-03-05 01:08:00,
2013-03-04 20:13:00,21.0,18.0,29.93,NNW,337,9.0,19.0,91,0.00,,,0.00,Rainwise IP-100,2013-03-05 01:13:00,
2013-03-04 20:18:00,21.0,18.0,29.93,NW,315,8.0,17.0,93,0.00,,,0.00,Rainwise IP-100,2013-03-05 01:18:00,
2013-03-04 20:23:00,21.0,18.0,29.93,North,360,7.0,16.0,92,0.00,,,0.00,Rainwise IP-100,2013-03-05 01:23:00,
2013-03-04 20:28:00,21.0,18.0,29.93,NW,315,4.0,13.0,92,0.00,,,0.00,Rainwise IP-100,2013-03-05 01:28:00,
2013-03-04 20:33:00,21.0,18.0,29.93,NNW,337,7.0,16.0,91,0.00,,,0.00,Rainwise IP-100,2013-03-05 01:33:00,
2013-03-04 20:38:00,21.0,18.0,29.93,North,360,6.0,15.0,92,0.00,,,0.00,Rainwise IP-100,2013-03-05 01:38:00,
2013-03-04 20:43:00,21.0,18.0,29.94,NW,315,12.0,21.0,92,0.00,,,0.00,Rainwise IP-100,2013-03-05 01:43:00,
2013-03-04 20:48:00,21.0,18.0,29.94,North,360,4.0,17.0,91,0.00,,,0.00,Rainwise IP-100,2013-03-05 01:48:00,
2013-03-04 20:53:00,21.0,18.0,29.94,ENE,67,3.0,16.0,91,0.00,,,0.00,Rainwise IP-100,2013-03-05 01:53:00,
2013-03-04 20:58:00,21.0,18.0,29.94,NNW,337,7.0,11.0,91,0.00,,,0.00,Rainwise IP-100,2013-03-05 01:58:00,
2013-03-04 21:03:00,21.0,18.0,29.93,NNW,337,10.0,16.0,90,0.00,,,0.00,Rainwise IP-100,2013-03-05 02:03:00,
2013-03-04 21:08:00,21.0,18.0,29.93,NW,315,1.0,17.0,90,0.00,,,0.00,Rainwise IP-100,2013-03-05 02:08:00,
2013-03-04 21:13:00,21.0,18.0,29.94,North,360,6.0,14.0,90,0.00,,,0.00,Rainwise IP-100,2013-03-05 02:13:00,
2013-03-04 21:18:00,21.0,18.0,29.94,ENE,67,5.0,16.0,89,0.00,,,0.00,Rainwise IP-100,2013-03-05 02:18:00,
2013-03-04 21:23:00,21.0,18.0,29.94,North,360,8.0,14.0,89,0.00,,,0.00,Rainwise IP-100,2013-03-05 02:23:00,
2013-03-04 21:28:00,21.0,18.0,29.94,NE,45,4.0,13.0,90,0.00,,,0.00,Rainwise IP-100,2013-03-05 02:28:00,
2013-03-04 21:33:00,21.0,18.0,29.94,ENE,67,5.0,13.0,90,0.00,,,0.00,Rainwise IP-100,2013-03-05 02:33:00,
2013-03-04 21:38:00,21.0,18.0,29.94,North,360,6.0,14.0,90,0.00,,,0.00,Rainwise IP-100,2013-03-05 02:38:00,
2013-03-04 21:43:00,21.0,18.0,29.95,NNW,337,8.0,12.0,90,0.00,,,0.00,Rainwise IP-100,2013-03-05 02:43:00,
2013-03-04 21:48:00,21.0,18.0,29.95,North,360,12.0,16.0,90,0.00,,,0.00,Rainwise IP-100,2013-03-05 02:48:00,
2013-03-04 21:53:00,21.0,18.0,29.94,NW,315,10.0,17.0,89,0.00,,,0.00,Rainwise IP-100,2013-03-05 02:53:00,
2013-03-04 21:58:00,21.0,18.0,29.94,North,360,12.0,16.0,89,0.00,,,0.00,Rainwise IP-100,2013-03-05 02:58:00,
2013-03-04 22:03:00,21.0,18.0,29.94,North,360,6.0,14.0,90,0.00,,,0.00,Rainwise IP-100,2013-03-05 03:03:00,
2013-03-04 22:08:00,22.0,21.0,29.94,NW,315,14.0,16.0,90,0.00,,,0.00,Rainwise IP-100,2013-03-05 03:08:00,
2013-03-04 22:13:00,22.0,21.0,29.94,North,360,10.0,16.0,89,0.00,,,0.00,Rainwise IP-100,2013-03-05 03:13:00,
2013-03-04 22:18:00,22.0,21.0,29.94,North,360,10.0,15.0,89,0.00,,,0.00,Rainwise IP-100,2013-03-05 03:18:00,
2013-03-04 22:23:00,22.0,21.0,29.95,North,360,10.0,17.0,89,0.00,,,0.00,Rainwise IP-100,2013-03-05 03:23:00,
2013-03-04 22:28:00,22.0,21.0,29.95,NNW,337,13.0,18.0,89,0.00,,,0.00,Rainwise IP-100,2013-03-05 03:28:00,
2013-03-04 22:33:00,22.0,21.0,29.95,NE,45,9.0,18.0,89,0.00,,,0.00,Rainwise IP-100,2013-03-05 03:33:00,
2013-03-04 22:38:00,22.0,21.0,29.95,NNW,337,7.0,15.0,89,0.00,,,0.00,Rainwise IP-100,2013-03-05 03:38:00,
2013-03-04 22:43:00,22.0,21.0,29.95,North,360,8.0,20.0,89,0.00,,,0.00,Rainwise IP-100,2013-03-05 03:43:00,
2013-03-04 22:48:00,22.0,21.0,29.95,WNW,292,11.0,16.0,89,0.00,,,0.00,Rainwise IP-100,2013-03-05 03:48:00,
2013-03-04 22:53:00,22.0,21.0,29.95,NNW,337,9.0,18.0,89,0.00,,,0.00,Rainwise IP-100,2013-03-05 03:53:00,
2013-03-04 22:58:00,22.0,21.0,29.95,North,360,10.0,20.0,89,0.00,,,0.00,Rainwise IP-100,2013-03-05 03:58:00,
2013-03-04 23:03:00,22.0,21.0,29.96,NW,315,10.0,17.0,89,0.00,,,0.00,Rainwise IP-100,2013-03-05 04:03:00,
2013-03-04 23:08:00,22.0,21.0,29.96,NNW,337,11.0,19.0,90,0.00,,,0.00,Rainwise IP-100,2013-03-05 04:08:00,
2013-03-04 23:13:00,22.0,21.0,29.96,NNW,337,10.0,19.0,92,0.00,,,0.00,Rainwise IP-100,2013-03-05 04:13:00,
2013-03-04 23:18:00,22.0,21.0,29.96,North,360,8.0,16.0,93,0.00,,,0.00,Rainwise IP-100,2013-03-05 04:18:00,
2013-03-04 23:23:00,22.0,21.0,29.96,North,360,7.0,15.0,92,0.00,,,0.00,Rainwise IP-100,2013-03-05 04:23:00,
2013-03-04 23:28:00,22.0,21.0,29.96,North,360,4.0,12.0,91,0.00,,,0.00,Rainwise IP-100,2013-03-05 04:28:00,
2013-03-04 23:33:00,22.0,21.0,29.96,NNW,337,5.0,7.0,92,0.00,,,0.00,Rainwise IP-100,2013-03-05 04:33:00,
2013-03-04 23:38:00,22.0,21.0,29.96,NW,315,2.0,7.0,91,0.00,,,0.00,Rainwise IP-100,2013-03-05 04:38:00,
2013-03-04 23:43:00,22.0,21.0,29.96,East,90,2.0,5.0,90,0.00,,,0.00,Rainwise IP-100,2013-03-05 04:43:00,
2013-03-04 23:48:00,22.0,21.0,29.96,NE,45,4.0,4.0,90,0.00,,,0.00,Rainwise IP-100,2013-03-05 04:48:00,
2013-03-04 23:53:00,22.0,21.0,29.95,West,270,0.0,6.0,88,0.00,,,0.00,Rainwise IP-100,2013-03-05 04:53:00,
2013-03-04 23:58:00,22.0,21.0,29.95,WNW,292,2.0,7.0,89,0.00,,,0.00,Rainwise IP-100,2013-03-05 04:58:00,